Time,TemperatureF,DewpointF,PressureIn,WindDirection,WindDirectionDegrees,WindSpeedMPH,WindSpeedGustMPH,Humidity,HourlyPrecipIn,Conditions,Clouds,dailyrainin,SoftwareType,DateUTC
2013-10-17 00:01:00,57.8,53.6,29.87,SSE,158,0.0,0.4,86,0.00,,,0.00,WUHU216HW,2013-10-17 04:01:00,
2013-10-17 00:06:00,57.8,53.6,29.86,SSE,158,0.0,0.4,86,0.00,,,0.00,WUHU216HW,2013-10-17 04:06:00,
2013-10-17 00:11:00,57.8,53.6,29.87,SSE,158,0.0,0.0,86,0.00,,,0.00,WUHU216HW,2013-10-17 04:11:00,
2013-10-17 00:16:00,57.8,53.6,29.86,SSE,158,0.2,0.2,86,0.00,,,0.00,WUHU216HW,2013-10-17 04:16:00,
2013-10-17 00:21:00,57.8,53.9,29.87,SE,135,0.0,0.2,87,0.00,,,0.00,WUHU216HW,2013-10-17 04:21:00,
2013-10-17 00:26:00,57.6,53.7,29.87,WNW,293,0.0,0.4,87,0.00,,,0.00,WUHU216HW,2013-10-17 04:26:00,
2013-10-17 00:31:00,57.6,53.7,29.87,West,270,0.4,0.7,87,0.00,,,0.00,WUHU216HW,2013-10-17 04:31:00,
2013-10-17 00:36:00,57.6,53.7,29.87,WSW,248,0.2,0.9,87,0.00,,,0.00,WUHU216HW,2013-10-17 04:36:00,
2013-10-17 00:41:00,57.6,53.7,29.86,SSE,158,0.4,1.1,87,0.00,,,0.00,WUHU216HW,2013-10-17 04:41:00,
2013-10-17 00:46:00,57.6,53.7,29.86,WSW,248,0.0,2.9,87,0.00,,,0.00,WUHU216HW,2013-10-17 04:46:00,
2013-10-17 00:51:00,57.6,53.7,29.86,SE,135,0.0,2.9,87,0.00,,,0.00,WUHU216HW,2013-10-17 04:51:00,
2013-10-17 00:56:00,57.6,53.7,29.86,SSE,158,0.4,0.4,87,0.00,,,0.00,WUHU216HW,2013-10-17 04:56:00,
2013-10-17 01:01:00,57.6,53.7,29.86,SSE,158,0.0,0.4,87,0.00,,,0.00,WUHU216HW,2013-10-17 05:01:00,
2013-10-17 01:06:00,57.6,53.7,29.85,SSE,158,0.0,0.4,87,0.00,,,0.00,WUHU216HW,2013-10-17 05:06:00,
2013-10-17 01:11:00,57.6,53.7,29.85,SE,135,0.0,0.4,87,0.00,,,0.00,WUHU216HW,2013-10-17 05:11:00,
2013-10-17 01:16:00,57.6,53.7,29.85,SSE,158,0.7,0.7,87,0.00,,,0.00,WUHU216HW,2013-10-17 05:16:00,
2013-10-17 01:21:00,57.6,53.7,29.86,SE,135,0.0,0.7,87,0.00,,,0.00,WUHU216HW,2013-10-17 05:21:00,
2013-10-17 01:26:00,57.6,53.7,29.85,SE,135,0.0,0.4,87,0.00,,,0.00,WUHU216HW,2013-10-17 05:26:00,
2013-10-17 01:31:00,57.6,53.7,29.86,WSW,248,0.2,0.2,87,0.00,,,0.00,WUHU216HW,2013-10-17 05:31:00,
2013-10-17 01:36:00,57.6,53.7,29.85,WSW,248,0.0,0.2,87,0.00,,,0.00,WUHU216HW,2013-10-17 05:36:00,
2013-10-17 01:41:00,57.6,53.7,29.85,SE,135,0.0,0.4,87,0.00,,,0.00,WUHU216HW,2013-10-17 05:41:00,
2013-10-17 01:46:00,57.6,53.7,29.85,North,0,0.4,0.4,87,0.00,,,0.00,WUHU216HW,2013-10-17 05:46:00,
2013-10-17 01:51:00,57.6,53.7,29.85,NNW,338,0.0,0.4,87,0.00,,,0.00,WUHU216HW,2013-10-17 05:51:00,
2013-10-17 01:56:00,57.6,53.7,29.85,SW,225,0.2,0.7,87,0.00,,,0.00,WUHU216HW,2013-10-17 05:56:00,
2013-10-17 02:01:00,57.6,53.7,29.84,WSW,248,0.0,0.7,87,0.00,,,0.00,WUHU216HW,2013-10-17 06:01:00,
2013-10-17 02:06:00,57.6,53.7,29.85,SSE,158,0.4,0.4,87,0.00,,,0.00,WUHU216HW,2013-10-17 06:06:00,
2013-10-17 02:11:00,57.6,53.7,29.85,SSW,203,0.2,0.4,87,0.00,,,0.00,WUHU216HW,2013-10-17 06:11:00,
2013-10-17 02:16:00,57.6,53.7,29.84,WNW,293,0.0,0.4,87,0.00,,,0.00,WUHU216HW,2013-10-17 06:16:00,
2013-10-17 02:21:00,57.6,53.7,29.85,West,270,0.0,0.2,87,0.00,,,0.00,WUHU216HW,2013-10-17 06:21:00,
2013-10-17 02:26:00,57.4,53.5,29.84,West,270,0.7,0.7,87,0.00,,,0.00,WUHU216HW,2013-10-17 06:26:00,
2013-10-17 02:31:00,57.6,53.7,29.84,SSE,158,0.2,0.7,87,0.00,,,0.00,WUHU216HW,2013-10-17 06:31:00,
2013-10-17 02:36:00,57.6,53.7,29.84,NW,315,0.0,0.7,87,0.00,,,0.00,WUHU216HW,2013-10-17 06:36:00,
2013-10-17 02:41:00,57.6,53.7,29.84,SSE,158,0.2,0.7,87,0.00,,,0.00,WUHU216HW,2013-10-17 06:41:00,
2013-10-17 02:46:00,57.6,53.7,29.84,SW,225,0.2,0.2,87,0.00,,,0.00,WUHU216HW,2013-10-17 06:46:00,
2013-10-17 02:51:00,57.6,53.7,29.84,North,0,0.4,0.4,87,0.00,,,0.00,WUHU216HW,2013-10-17 06:51:00,
2013-10-17 02:56:00,57.6,54.1,29.84,NNE,23,0.9,0.9,88,0.00,,,0.00,WUHU216HW,2013-10-17 06:56:00,
2013-10-17 03:01:00,57.6,54.1,29.83,SSE,158,0.4,1.1,88,0.00,,,0.00,WUHU216HW,2013-10-17 07:01:00,
2013-10-17 03:06:00,57.6,54.1,29.83,SE,135,0.0,1.1,88,0.00,,,0.00,WUHU216HW,2013-10-17 07:06:00,
2013-10-17 03:11:00,57.6,54.1,29.83,NNW,338,0.2,0.4,88,0.00,,,0.00,WUHU216HW,2013-10-17 07:11:00,
2013-10-17 03:16:00,57.6,54.1,29.83,WNW,293,1.8,1.8,88,0.00,,,0.00,WUHU216HW,2013-10-17 07:16:00,
2013-10-17 03:21:00,57.8,54.2,29.83,West,270,1.1,1.8,88,0.00,,,0.00,WUHU216HW,2013-10-17 07:21:00,
2013-10-17 03:26:00,57.8,54.2,29.83,NW,315,1.8,2.0,88,0.00,,,0.00,WUHU216HW,2013-10-17 07:26:00,
2013-10-17 03:31:00,57.8,54.2,29.83,WNW,293,1.3,1.8,88,0.00,,,0.00,WUHU216HW,2013-10-17 07:31:00,
2013-10-17 03:36:00,57.8,54.2,29.83,WSW,248,1.1,1.3,88,0.00,,,0.00,WUHU216HW,2013-10-17 07:36:00,
2013-10-17 03:41:00,57.8,54.2,29.83,WSW,248,4.7,4.7,88,0.00,,,0.00,WUHU216HW,2013-10-17 07:41:00,
2013-10-17 03:46:00,57.8,54.2,29.83,WSW,248,0.2,4.7,88,0.00,,,0.00,WUHU216HW,2013-10-17 07:46:00,
2013-10-17 03:51:00,57.9,54.7,29.83,WNW,293,1.8,4.7,89,0.00,,,0.00,WUHU216HW,2013-10-17 07:51:00,
2013-10-17 03:56:00,57.9,54.7,29.83,WNW,293,0.7,4.3,89,0.00,,,0.00,WUHU216HW,2013-10-17 07:56:00,
2013-10-17 04:01:00,57.9,54.7,29.83,WNW,293,0.7,2.0,89,0.00,,,0.00,WUHU216HW,2013-10-17 08:01:00,
2013-10-17 04:06:00,58.1,54.8,29.83,SE,135,0.0,0.7,89,0.00,,,0.00,WUHU216HW,2013-10-17 08:06:00,
2013-10-17 04:09:00,58.1,54.8,29.83,West,270,0.7,0.7,89,0.00,,,0.00,WUHU216HW,2013-10-17 08:09:00,
2013-10-17 04:14:00,58.1,54.8,29.83,SW,225,0.2,1.3,89,0.00,,,0.00,WUHU216HW,2013-10-17 08:14:00,
2013-10-17 04:19:00,58.1,54.8,29.83,West,270,0.4,1.3,89,0.00,,,0.00,WUHU216HW,2013-10-17 08:19:00,
2013-10-17 04:24:00,58.1,54.8,29.83,SSE,158,0.2,1.8,89,0.00,,,0.00,WUHU216HW,2013-10-17 08:24:00,
2013-10-17 04:29:00,58.1,54.8,29.83,WNW,293,0.0,1.8,89,0.00,,,0.00,WUHU216HW,2013-10-17 08:29:00,
2013-10-17 04:34:00,58.1,54.8,29.83,SSE,158,0.0,1.1,89,0.00,,,0.00,WUHU216HW,2013-10-17 08:34:00,
2013-10-17 04:39:00,58.1,54.8,29.83,NW,315,0.4,2.5,89,0.00,,,0.00,WUHU216HW,2013-10-17 08:39:00,
2013-10-17 04:44:00,58.1,54.8,29.83,NW,315,2.5,2.5,89,0.00,,,0.00,WUHU216HW,2013-10-17 08:44:00,
2013-10-17 04:49:00,58.1,54.8,29.83,SW,225,0.9,2.5,89,0.00,,,0.00,WUHU216HW,2013-10-17 08:49:00,
2013-10-17 04:54:00,58.1,54.8,29.82,NW,315,2.9,2.9,89,0.00,,,0.00,WUHU216HW,2013-10-17 08:54:00,
2013-10-17 04:59:00,58.1,54.8,29.83,WSW,248,0.7,2.9,89,0.00,,,0.00,WUHU216HW,2013-10-17 08:59:00,
2013-10-17 05:04:00,58.1,55.2,29.83,NW,315,1.8,2.9,90,0.00,,,0.00,WUHU216HW,2013-10-17 09:04:00,
2013-10-17 05:09:00,58.1,55.2,29.83,West,270,1.1,2.7,90,0.00,,,0.00,WUHU216HW,2013-10-17 09:09:00,
2013-10-17 05:14:00,57.9,55.0,29.83,West,270,2.7,2.7,90,0.00,,,0.00,WUHU216HW,2013-10-17 09:14:00,
2013-10-17 05:19:00,57.9,55.0,29.82,NW,315,2.5,2.7,90,0.00,,,0.00,WUHU216HW,2013-10-17 09:19:00,
2013-10-17 05:24:00,57.9,55.0,29.82,SSW,203,1.6,2.7,90,0.00,,,0.00,WUHU216HW,2013-10-17 09:24:00,
2013-10-17 05:29:00,57.9,55.0,29.82,West,270,1.8,2.5,90,0.00,,,0.00,WUHU216HW,2013-10-17 09:29:00,
2013-10-17 05:34:00,57.9,55.0,29.83,SW,225,1.1,2.0,90,0.00,,,0.00,WUHU216HW,2013-10-17 09:34:00,
2013-10-17 05:39:00,57.8,54.9,29.83,WSW,248,2.0,2.0,90,0.00,,,0.00,WUHU216HW,2013-10-17 09:39:00,
2013-10-17 05:44:00,57.8,54.9,29.83,SSW,203,2.2,2.2,90,0.00,,,0.00,WUHU216HW,2013-10-17 09:44:00,
2013-10-17 05:49:00,57.8,54.9,29.83,NW,315,1.1,3.6,90,0.00,,,0.00,WUHU216HW,2013-10-17 09:49:00,
2013-10-17 05:54:00,57.8,54.9,29.82,WSW,248,0.4,3.6,90,0.00,,,0.00,WUHU216HW,2013-10-17 09:54:00,
2013-10-17 05:59:00,57.8,54.9,29.83,SSW,203,0.4,1.1,90,0.00,,,0.00,WUHU216HW,2013-10-17 09:59:00,
2013-10-17 06:04:00,57.8,54.9,29.83,West,270,2.2,2.2,90,0.00,,,0.00,WUHU216HW,2013-10-17 10:04:00,
2013-10-17 06:09:00,57.8,54.9,29.83,WSW,248,2.5,2.5,90,0.00,,,0.00,WUHU216HW,2013-10-17 10:09:00,
2013-10-17 06:14:00,57.8,54.9,29.83,West,270,0.9,2.5,90,0.00,,,0.00,WUHU216HW,2013-10-17 10:14:00,
2013-10-17 06:19:00,57.8,54.9,29.83,WSW,248,0.4,2.5,90,0.00,,,0.00,WUHU216HW,2013-10-17 10:19:00,
2013-10-17 06:24:00,57.8,54.9,29.83,West,270,0.7,2.0,90,0.00,,,0.00,WUHU216HW,2013-10-17 10:24:00,
2013-10-17 06:29:00,57.8,54.9,29.83,WSW,248,0.2,3.1,90,0.00,,,0.00,WUHU216HW,2013-10-17 10:29:00,
2013-10-17 06:34:00,57.8,54.9,29.83,West,270,0.2,3.1,90,0.00,,,0.00,WUHU216HW,2013-10-17 10:34:00,
2013-10-17 06:39:00,57.8,54.9,29.83,West,270,0.4,0.4,90,0.00,,,0.00,WUHU216HW,2013-10-17 10:39:00,
2013-10-17 06:44:00,57.9,55.0,29.83,WSW,248,2.2,3.1,90,0.00,,,0.00,WUHU216HW,2013-10-17 10:44:00,
2013-10-17 06:49:00,57.9,55.0,29.83,WNW,293,0.0,3.1,90,0.00,,,0.00,WUHU216HW,2013-10-17 10:49:00,
2013-10-17 06:54:00,57.9,55.0,29.83,West,270,1.1,2.2,90,0.00,,,0.00,WUHU216HW,2013-10-17 10:54:00,
2013-10-17 06:59:00,57.9,55.0,29.84,WSW,248,3.8,3.8,90,0.00,,,0.00,WUHU216HW,2013-10-17 10:59:00,
2013-10-17 07:03:00,57.9,55.0,29.84,West,270,2.7,3.8,90,0.00,,,0.00,WUHU216HW,2013-10-17 11:03:00,
2013-10-17 07:08:00,57.9,55.0,29.84,WSW,248,0.0,4.0,90,0.00,,,0.00,WUHU216HW,2013-10-17 11:08:00,
2013-10-17 07:13:00,57.9,55.0,29.83,SW,225,0.0,4.0,90,0.00,,,0.00,WUHU216HW,2013-10-17 11:13:00,
2013-10-17 07:18:00,57.9,55.0,29.83,WSW,248,1.1,1.3,90,0.00,,,0.00,WUHU216HW,2013-10-17 11:18:00,
2013-10-17 07:23:00,57.9,55.0,29.84,ESE,113,0.7,2.5,90,0.00,,,0.00,WUHU216HW,2013-10-17 11:23:00,
2013-10-17 07:28:00,57.9,55.0,29.84,West,270,1.1,2.5,90,0.00,,,0.00,WUHU216HW,2013-10-17 11:28:00,
2013-10-17 07:33:00,58.1,55.2,29.84,SW,225,1.3,1.8,90,0.00,,,0.00,WUHU216HW,2013-10-17 11:33:00,
2013-10-17 07:38:00,58.1,55.2,29.84,WSW,248,2.7,2.7,90,0.00,,,0.00,WUHU216HW,2013-10-17 11:38:00,
2013-10-17 07:43:00,58.1,55.2,29.84,SW,225,2.9,2.9,90,0.00,,,0.00,WUHU216HW,2013-10-17 11:43:00,
2013-10-17 07:48:00,58.1,55.2,29.84,NW,315,2.5,2.9,90,0.00,,,0.00,WUHU216HW,2013-10-17 11:48:00,
2013-10-17 07:53:00,58.1,55.2,29.84,SW,225,3.1,3.1,90,0.00,,,0.00,WUHU216HW,2013-10-17 11:53:00,
2013-10-17 07:58:00,58.1,55.2,29.85,West,270,1.1,3.1,90,0.00,,,0.00,WUHU216HW,2013-10-17 11:58:00,
2013-10-17 08:03:00,58.1,55.2,29.85,West,270,0.4,1.1,90,0.00,,,0.00,WUHU216HW,2013-10-17 12:03:00,
2013-10-17 08:08:00,58.1,55.2,29.84,West,270,0.2,1.8,90,0.00,,,0.00,WUHU216HW,2013-10-17 12:08:00,
2013-10-17 08:13:00,58.1,55.2,29.84,NW,315,0.7,1.8,90,0.00,,,0.00,WUHU216HW,2013-10-17 12:13:00,
2013-10-17 08:18:00,58.1,55.2,29.85,West,270,0.9,0.9,90,0.00,,,0.00,WUHU216HW,2013-10-17 12:18:00,
2013-10-17 08:23:00,58.3,55.3,29.85,NW,315,0.0,1.8,90,0.00,,,0.00,WUHU216HW,2013-10-17 12:23:00,
2013-10-17 08:28:00,58.3,55.3,29.85,WSW,248,0.4,2.0,90,0.00,,,0.00,WUHU216HW,2013-10-17 12:28:00,
2013-10-17 08:33:00,58.3,55.3,29.85,NW,315,1.1,2.0,90,0.00,,,0.00,WUHU216HW,2013-10-17 12:33:00,
2013-10-17 08:38:00,58.5,55.5,29.85,WNW,293,0.4,1.3,90,0.00,,,0.00,WUHU216HW,2013-10-17 12:38:00,
2013-10-17 08:43:00,58.5,55.5,29.85,WSW,248,2.7,2.7,90,0.00,,,0.00,WUHU216HW,2013-10-17 12:43:00,
2013-10-17 08:48:00,58.5,55.5,29.85,NW,315,0.9,2.7,90,0.00,,,0.00,WUHU216HW,2013-10-17 12:48:00,
2013-10-17 08:53:00,58.5,55.5,29.85,NW,315,0.9,2.7,90,0.00,,,0.00,WUHU216HW,2013-10-17 12:53:00,
2013-10-17 08:58:00,58.7,55.7,29.85,NW,315,1.6,1.8,90,0.00,,,0.00,WUHU216HW,2013-10-17 12:58:00,
2013-10-17 09:03:00,58.7,55.7,29.85,WNW,293,3.1,3.1,90,0.00,,,0.00,WUHU216HW,2013-10-17 13:03:00,
2013-10-17 09:08:00,58.8,55.8,29.86,SW,225,2.5,3.1,90,0.00,,,0.00,WUHU216HW,2013-10-17 13:08:00,
2013-10-17 09:13:00,58.8,55.8,29.86,SW,225,1.8,3.1,90,0.00,,,0.00,WUHU216HW,2013-10-17 13:13:00,
2013-10-17 09:18:00,58.8,55.8,29.85,SW,225,1.6,4.7,90,0.00,,,0.00,WUHU216HW,2013-10-17 13:18:00,
2013-10-17 09:23:00,58.8,55.8,29.85,NW,315,0.7,4.7,90,0.00,,,0.00,WUHU216HW,2013-10-17 13:23:00,
2013-10-17 09:28:00,59.0,56.0,29.85,West,270,2.5,4.0,90,0.00,,,0.00,WUHU216HW,2013-10-17 13:28:00,
2013-10-17 09:33:00,59.0,56.0,29.85,NW,315,0.4,4.0,90,0.00,,,0.00,WUHU216HW,2013-10-17 13:33:00,
2013-10-17 09:38:00,59.2,56.2,29.85,WSW,248,0.4,2.9,90,0.00,,,0.00,WUHU216HW,2013-10-17 13:38:00,
2013-10-17 09:43:00,59.4,56.1,29.85,WNW,293,0.4,2.9,89,0.00,,,0.00,WUHU216HW,2013-10-17 13:43:00,
2013-10-17 09:48:00,59.6,56.3,29.85,North,0,0.4,2.7,89,0.00,,,0.00,WUHU216HW,2013-10-17 13:48:00,
2013-10-17 09:53:00,59.6,56.3,29.85,WNW,293,1.6,1.6,89,0.00,,,0.00,WUHU216HW,2013-10-17 13:53:00,
2013-10-17 09:58:00,59.6,56.3,29.85,WSW,248,0.7,1.6,89,0.00,,,0.00,WUHU216HW,2013-10-17 13:58:00,
2013-10-17 10:03:00,59.6,56.3,29.86,WSW,248,1.8,3.4,89,0.00,,,0.00,WUHU216HW,2013-10-17 14:03:00,
2013-10-17 10:08:00,59.6,56.0,29.85,North,0,1.3,3.4,88,0.00,,,0.00,WUHU216HW,2013-10-17 14:08:00,
2013-10-17 10:13:00,59.7,56.1,29.85,NNW,338,0.2,2.2,88,0.00,,,0.00,WUHU216HW,2013-10-17 14:13:00,
2013-10-17 10:18:00,59.7,56.1,29.85,NW,315,1.8,1.8,88,0.00,,,0.00,WUHU216HW,2013-10-17 14:18:00,
2013-10-17 10:23:00,59.7,56.1,29.85,NW,315,0.0,1.8,88,0.00,,,0.00,WUHU216HW,2013-10-17 14:23:00,
2013-10-17 10:28:00,59.9,56.3,29.85,NW,315,0.0,1.8,88,0.00,,,0.00,WUHU216HW,2013-10-17 14:28:00,
2013-10-17 10:33:00,59.9,56.0,29.86,WNW,293,0.4,1.1,87,0.00,,,0.00,WUHU216HW,2013-10-17 14:33:00,
2013-10-17 10:38:00,59.9,56.0,29.86,West,270,0.7,1.1,87,0.00,,,0.00,WUHU216HW,2013-10-17 14:38:00,
2013-10-17 10:43:00,59.7,55.8,29.86,WNW,293,1.3,1.3,87,0.00,,,0.00,WUHU216HW,2013-10-17 14:43:00,
2013-10-17 10:48:00,59.7,55.8,29.85,WNW,293,0.4,1.3,87,0.00,,,0.00,WUHU216HW,2013-10-17 14:48:00,
2013-10-17 10:53:00,59.7,55.8,29.85,WNW,293,0.7,0.7,87,0.00,,,0.00,WUHU216HW,2013-10-17 14:53:00,
2013-10-17 10:59:00,59.9,56.0,29.84,West,270,0.4,0.9,87,0.00,,,0.00,WUHU216HW,2013-10-17 14:59:00,
2013-10-17 11:04:00,59.9,56.0,29.84,WNW,293,0.0,0.9,87,0.00,,,0.00,WUHU216HW,2013-10-17 15:04:00,
2013-10-17 11:09:00,60.1,55.9,29.84,WNW,293,0.0,0.4,86,0.00,,,0.00,WUHU216HW,2013-10-17 15:09:00,
2013-10-17 11:14:00,60.1,55.9,29.84,West,270,0.4,0.4,86,0.00,,,0.00,WUHU216HW,2013-10-17 15:14:00,
2013-10-17 11:19:00,60.3,56.1,29.84,NNE,23,0.4,0.4,86,0.00,,,0.00,WUHU216HW,2013-10-17 15:19:00,
2013-10-17 11:24:00,60.3,56.1,29.84,SE,135,0.7,0.9,86,0.00,,,0.00,WUHU216HW,2013-10-17 15:24:00,
2013-10-17 11:29:00,60.5,56.0,29.84,NW,315,0.7,0.9,85,0.00,,,0.00,WUHU216HW,2013-10-17 15:29:00,
2013-10-17 11:33:00,60.6,55.8,29.84,North,0,0.4,1.8,84,0.00,,,0.00,WUHU216HW,2013-10-17 15:33:00,
2013-10-17 11:38:00,60.8,56.3,29.84,SSE,158,0.0,1.8,85,0.00,,,0.00,WUHU216HW,2013-10-17 15:38:00,
2013-10-17 11:43:00,61.0,56.1,29.84,NW,315,0.0,0.9,84,0.00,,,0.00,WUHU216HW,2013-10-17 15:43:00,
2013-10-17 11:48:00,61.2,55.7,29.84,NW,315,0.4,1.3,82,0.00,,,0.00,WUHU216HW,2013-10-17 15:48:00,
2013-10-17 11:53:00,61.5,56.3,29.83,North,0,0.4,1.3,83,0.00,,,0.00,WUHU216HW,2013-10-17 15:53:00,
2013-10-17 11:58:00,61.5,56.3,29.83,NNW,338,0.7,0.7,83,0.00,,,0.00,WUHU216HW,2013-10-17 15:58:00,
2013-10-17 12:03:00,61.7,56.5,29.83,North,0,1.3,1.3,83,0.00,,,0.00,WUHU216HW,2013-10-17 16:03:00,
2013-10-17 12:08:00,62.1,56.6,29.83,NW,315,0.4,1.6,82,0.00,,,0.00,WUHU216HW,2013-10-17 16:08:00,
2013-10-17 12:13:00,62.1,56.3,29.83,WNW,293,0.4,1.6,81,0.00,,,0.00,WUHU216HW,2013-10-17 16:13:00,
2013-10-17 12:18:00,62.3,56.4,29.83,NNW,338,1.3,1.3,81,0.00,,,0.00,WUHU216HW,2013-10-17 16:18:00,
2013-10-17 12:23:00,62.4,56.9,29.83,South,180,1.8,1.8,82,0.00,,,0.00,WUHU216HW,2013-10-17 16:23:00,
2013-10-17 12:28:00,62.6,56.4,29.82,West,270,3.4,3.8,80,0.00,,,0.00,WUHU216HW,2013-10-17 16:28:00,
2013-10-17 12:33:00,62.6,56.1,29.82,WNW,293,1.8,3.8,79,0.00,,,0.00,WUHU216HW,2013-10-17 16:33:00,
2013-10-17 12:39:00,63.2,56.3,29.82,WSW,248,1.1,3.4,78,0.00,,,0.00,WUHU216HW,2013-10-17 16:39:00,
2013-10-17 12:44:00,63.5,56.3,29.82,West,270,2.5,2.5,77,0.00,,,0.00,WUHU216HW,2013-10-17 16:44:00,
2013-10-17 12:49:00,64.2,56.9,29.81,WNW,293,2.2,2.5,77,0.00,,,0.00,WUHU216HW,2013-10-17 16:49:00,
2013-10-17 12:54:00,64.6,57.3,29.81,South,180,0.9,2.2,77,0.00,,,0.00,WUHU216HW,2013-10-17 16:54:00,
2013-10-17 12:59:00,65.0,57.4,29.81,NW,315,0.9,2.5,76,0.00,,,0.00,WUHU216HW,2013-10-17 16:59:00,
2013-10-17 13:04:00,65.3,56.6,29.81,WSW,248,4.3,4.3,73,0.00,,,0.00,WUHU216HW,2013-10-17 17:04:00,
2013-10-17 13:09:00,65.3,56.9,29.80,NW,315,0.0,4.3,74,0.00,,,0.00,WUHU216HW,2013-10-17 17:09:00,
2013-10-17 13:14:00,65.5,56.4,29.80,WNW,293,2.0,2.9,72,0.00,,,0.00,WUHU216HW,2013-10-17 17:14:00,
2013-10-17 13:19:00,65.7,56.9,29.80,NNW,338,1.3,2.5,73,0.00,,,0.00,WUHU216HW,2013-10-17 17:19:00,
2013-10-17 13:24:00,65.5,56.0,29.80,WNW,293,0.7,2.0,71,0.00,,,0.00,WUHU216HW,2013-10-17 17:24:00,
2013-10-17 13:29:00,65.3,56.6,29.79,WNW,293,0.9,2.7,73,0.00,,,0.00,WUHU216HW,2013-10-17 17:29:00,
2013-10-17 13:34:00,65.5,56.8,29.79,NW,315,1.3,2.5,73,0.00,,,0.00,WUHU216HW,2013-10-17 17:34:00,
2013-10-17 13:39:00,65.9,56.8,29.79,NW,315,1.6,4.9,72,0.00,,,0.00,WUHU216HW,2013-10-17 17:39:00,
2013-10-17 13:44:00,66.0,56.9,29.79,West,270,1.8,4.9,72,0.00,,,0.00,WUHU216HW,2013-10-17 17:44:00,
2013-10-17 13:49:00,66.0,56.9,29.78,West,270,1.6,2.5,72,0.00,,,0.00,WUHU216HW,2013-10-17 17:49:00,
2013-10-17 13:54:00,66.2,56.3,29.78,West,270,1.3,1.6,70,0.00,,,0.00,WUHU216HW,2013-10-17 17:54:00,
2013-10-17 13:59:00,66.4,56.1,29.78,WSW,248,0.4,1.6,69,0.00,,,0.00,WUHU216HW,2013-10-17 17:59:00,
2013-10-17 14:04:00,66.6,56.7,29.78,NW,315,0.4,2.0,70,0.00,,,0.00,WUHU216HW,2013-10-17 18:04:00,
2013-10-17 14:09:00,66.8,55.3,29.77,SSW,203,1.8,2.0,66,0.00,,,0.00,WUHU216HW,2013-10-17 18:09:00,
2013-10-17 14:14:00,67.1,56.4,29.76,WSW,248,0.7,1.8,68,0.00,,,0.00,WUHU216HW,2013-10-17 18:14:00,
2013-10-17 14:19:00,67.1,55.5,29.76,WNW,293,3.1,3.1,66,0.00,,,0.00,WUHU216HW,2013-10-17 18:19:00,
2013-10-17 14:24:00,67.3,55.3,29.76,SW,225,2.2,3.1,65,0.00,,,0.00,WUHU216HW,2013-10-17 18:24:00,
2013-10-17 14:29:00,67.5,55.5,29.76,South,180,1.8,2.2,65,0.00,,,0.00,WUHU216HW,2013-10-17 18:29:00,
2013-10-17 14:34:00,67.5,55.9,29.76,West,270,1.1,2.2,66,0.00,,,0.00,WUHU216HW,2013-10-17 18:34:00,
2013-10-17 14:39:00,67.5,56.3,29.77,WSW,248,1.8,1.8,67,0.00,,,0.00,WUHU216HW,2013-10-17 18:39:00,
2013-10-17 14:44:00,67.5,55.5,29.77,WNW,293,1.1,1.8,65,0.00,,,0.00,WUHU216HW,2013-10-17 18:44:00,
2013-10-17 14:49:00,67.8,55.8,29.77,West,270,2.7,2.7,65,0.00,,,0.00,WUHU216HW,2013-10-17 18:49:00,
2013-10-17 14:54:00,68.2,56.2,29.77,SSW,203,4.0,4.0,65,0.00,,,0.00,WUHU216HW,2013-10-17 18:54:00,
2013-10-17 14:59:00,68.2,55.3,29.76,WSW,248,3.8,4.0,63,0.00,,,0.00,WUHU216HW,2013-10-17 18:59:00,
2013-10-17 15:04:00,68.6,56.1,29.76,NW,315,3.1,4.0,64,0.00,,,0.00,WUHU216HW,2013-10-17 19:04:00,
2013-10-17 15:09:00,68.7,55.8,29.76,SSW,203,0.7,3.8,63,0.00,,,0.00,WUHU216HW,2013-10-17 19:09:00,
2013-10-17 15:14:00,68.7,56.2,29.76,ESE,113,1.6,3.8,64,0.00,,,0.00,WUHU216HW,2013-10-17 19:14:00,
2013-10-17 15:19:00,68.6,56.5,29.76,WSW,248,2.9,2.9,65,0.00,,,0.00,WUHU216HW,2013-10-17 19:19:00,
2013-10-17 15:24:00,68.6,56.1,29.77,WSW,248,1.1,2.9,64,0.00,,,0.00,WUHU216HW,2013-10-17 19:24:00,
2013-10-17 15:29:00,68.2,56.6,29.76,WNW,293,0.4,2.9,66,0.00,,,0.00,WUHU216HW,2013-10-17 19:29:00,
2013-10-17 15:31:00,68.2,56.6,29.76,WNW,293,0.4,2.9,66,0.00,,,0.00,WUHU216HW,2013-10-17 19:31:00,
2013-10-17 15:36:00,68.2,57.0,29.76,ESE,113,0.2,1.6,67,0.00,,,0.00,WUHU216HW,2013-10-17 19:36:00,
2013-10-17 15:41:00,68.0,56.8,29.76,ESE,113,1.1,1.6,67,0.00,,,0.00,WUHU216HW,2013-10-17 19:41:00,
2013-10-17 15:46:00,67.8,57.4,29.76,ESE,113,0.4,1.6,69,0.00,,,0.00,WUHU216HW,2013-10-17 19:46:00,
2013-10-17 15:51:00,67.8,57.8,29.76,SSE,158,0.4,1.8,70,0.00,,,0.00,WUHU216HW,2013-10-17 19:51:00,
2013-10-17 15:56:00,67.8,57.8,29.76,SSW,203,1.3,1.8,70,0.00,,,0.00,WUHU216HW,2013-10-17 19:56:00,
2013-10-17 16:01:00,67.8,57.8,29.76,East,90,1.1,1.3,70,0.00,,,0.00,WUHU216HW,2013-10-17 20:01:00,
2013-10-17 16:06:00,67.8,57.8,29.76,SSE,158,0.0,1.1,70,0.00,,,0.00,WUHU216HW,2013-10-17 20:06:00,
2013-10-17 16:11:00,67.8,57.8,29.76,WNW,293,0.4,1.1,70,0.00,,,0.00,WUHU216HW,2013-10-17 20:11:00,
2013-10-17 16:16:00,67.8,57.8,29.75,WSW,248,0.9,1.1,70,0.00,,,0.00,WUHU216HW,2013-10-17 20:16:00,
2013-10-17 16:21:00,67.8,57.8,29.75,West,270,1.1,2.7,70,0.00,,,0.00,WUHU216HW,2013-10-17 20:21:00,
2013-10-17 16:26:00,67.7,57.7,29.75,SE,135,1.3,2.7,70,0.00,,,0.00,WUHU216HW,2013-10-17 20:26:00,
2013-10-17 16:31:00,67.7,58.1,29.75,SSE,158,0.4,1.3,71,0.00,,,0.00,WUHU216HW,2013-10-17 20:31:00,
2013-10-17 16:36:00,67.7,58.1,29.75,West,270,1.1,1.3,71,0.00,,,0.00,WUHU216HW,2013-10-17 20:36:00,
2013-10-17 16:41:00,67.5,57.9,29.74,SE,135,0.7,1.1,71,0.00,,,0.00,WUHU216HW,2013-10-17 20:41:00,
2013-10-17 16:46:00,67.3,58.1,29.74,NW,315,1.3,1.3,72,0.00,,,0.00,WUHU216HW,2013-10-17 20:46:00,
2013-10-17 16:51:00,67.1,57.9,29.74,SSW,203,0.0,1.3,72,0.00,,,0.00,WUHU216HW,2013-10-17 20:51:00,
2013-10-17 16:56:00,67.1,57.9,29.74,SSE,158,1.1,1.3,72,0.00,,,0.00,WUHU216HW,2013-10-17 20:56:00,
2013-10-17 17:01:00,66.9,57.7,29.74,SSW,203,2.2,2.2,72,0.00,,,0.00,WUHU216HW,2013-10-17 21:01:00,
2013-10-17 17:06:00,66.8,57.6,29.74,NNW,338,2.0,2.2,72,0.00,,,0.00,WUHU216HW,2013-10-17 21:06:00,
2013-10-17 17:11:00,66.8,58.0,29.73,SSE,158,0.4,2.2,73,0.00,,,0.00,WUHU216HW,2013-10-17 21:11:00,
2013-10-17 17:16:00,66.8,58.0,29.73,SSE,158,1.6,2.0,73,0.00,,,0.00,WUHU216HW,2013-10-17 21:16:00,
2013-10-17 17:21:00,66.6,57.8,29.73,South,180,1.3,2.0,73,0.00,,,0.00,WUHU216HW,2013-10-17 21:21:00,
2013-10-17 17:26:00,66.4,57.6,29.73,South,180,0.4,2.0,73,0.00,,,0.00,WUHU216HW,2013-10-17 21:26:00,
2013-10-17 17:31:00,66.4,57.6,29.73,South,180,1.1,1.1,73,0.00,,,0.00,WUHU216HW,2013-10-17 21:31:00,
2013-10-17 17:36:00,66.2,57.8,29.73,SE,135,1.1,1.1,74,0.00,,,0.00,WUHU216HW,2013-10-17 21:36:00,
2013-10-17 17:41:00,66.0,57.6,29.73,SSE,158,0.0,1.1,74,0.00,,,0.00,WUHU216HW,2013-10-17 21:41:00,
2013-10-17 17:46:00,65.9,57.5,29.73,SE,135,0.2,1.1,74,0.00,,,0.00,WUHU216HW,2013-10-17 21:46:00,
2013-10-17 17:51:00,65.7,57.3,29.73,ESE,113,0.7,1.6,74,0.00,,,0.00,WUHU216HW,2013-10-17 21:51:00,
2013-10-17 17:56:00,65.7,57.3,29.73,SSE,158,0.0,1.6,74,0.00,,,0.00,WUHU216HW,2013-10-17 21:56:00,
2013-10-17 18:01:00,65.7,57.3,29.73,SSE,158,0.4,0.7,74,0.00,,,0.00,WUHU216HW,2013-10-17 22:01:00,
2013-10-17 18:06:00,65.5,57.1,29.73,NE,45,0.2,0.4,74,0.00,,,0.00,WUHU216HW,2013-10-17 22:06:00,
2013-10-17 18:11:00,65.3,57.3,29.73,ESE,113,1.1,1.1,75,0.00,,,0.00,WUHU216HW,2013-10-17 22:11:00,
2013-10-17 18:16:00,65.3,57.3,29.72,WNW,293,0.4,1.1,75,0.00,,,0.00,WUHU216HW,2013-10-17 22:16:00,
2013-10-17 18:21:00,65.1,57.1,29.72,SE,135,0.0,0.4,75,0.00,,,0.00,WUHU216HW,2013-10-17 22:21:00,
2013-10-17 18:26:00,65.1,57.1,29.71,SSE,158,0.2,1.3,75,0.00,,,0.00,WUHU216HW,2013-10-17 22:26:00,
2013-10-17 18:31:00,65.0,57.0,29.71,SE,135,0.4,1.3,75,0.00,,,0.00,WUHU216HW,2013-10-17 22:31:00,
2013-10-17 18:36:00,65.0,57.0,29.71,NNW,338,0.2,2.0,75,0.00,,,0.00,WUHU216HW,2013-10-17 22:36:00,
2013-10-17 18:41:00,65.0,57.4,29.71,SE,135,0.0,2.0,76,0.00,,,0.00,WUHU216HW,2013-10-17 22:41:00,
2013-10-17 18:46:00,64.8,57.2,29.71,SE,135,0.7,0.7,76,0.00,,,0.00,WUHU216HW,2013-10-17 22:46:00,
2013-10-17 18:51:00,64.8,57.2,29.71,SSE,158,0.7,0.7,76,0.00,,,0.00,WUHU216HW,2013-10-17 22:51:00,
2013-10-17 18:56:00,64.6,57.0,29.71,ESE,113,0.4,0.7,76,0.00,,,0.00,WUHU216HW,2013-10-17 22:56:00,
2013-10-17 19:01:00,64.6,57.0,29.71,South,180,0.7,0.7,76,0.00,,,0.00,WUHU216HW,2013-10-17 23:01:00,
2013-10-17 19:06:00,64.6,57.3,29.71,ESE,113,1.3,1.3,77,0.00,,,0.00,WUHU216HW,2013-10-17 23:06:00,
2013-10-17 19:11:00,64.4,57.1,29.71,SW,225,1.1,1.3,77,0.00,,,0.00,WUHU216HW,2013-10-17 23:11:00,
2013-10-17 19:16:00,64.2,56.9,29.70,SSE,158,0.7,1.3,77,0.00,,,0.00,WUHU216HW,2013-10-17 23:16:00,
2013-10-17 19:21:00,64.2,56.9,29.70,ESE,113,0.9,1.8,77,0.00,,,0.00,WUHU216HW,2013-10-17 23:21:00,
2013-10-17 19:26:00,64.2,56.9,29.70,SSE,158,0.2,1.8,77,0.00,,,0.00,WUHU216HW,2013-10-17 23:26:00,
2013-10-17 19:31:00,64.1,56.8,29.70,South,180,0.7,1.8,77,0.00,,,0.00,WUHU216HW,2013-10-17 23:31:00,
2013-10-17 19:36:00,64.1,56.8,29.69,North,0,0.0,0.7,77,0.00,,,0.00,WUHU216HW,2013-10-17 23:36:00,
2013-10-17 19:41:00,64.2,57.3,29.69,North,0,0.0,0.7,78,0.00,,,0.00,WUHU216HW,2013-10-17 23:41:00,
2013-10-17 19:46:00,64.2,57.3,29.69,North,0,0.0,0.0,78,0.00,,,0.00,WUHU216HW,2013-10-17 23:46:00,
2013-10-17 19:51:00,64.2,57.6,29.69,North,0,0.0,0.0,79,0.00,,,0.00,WUHU216HW,2013-10-17 23:51:00,
2013-10-17 19:56:00,64.1,57.5,29.69,North,0,0.0,0.0,79,0.00,,,0.00,WUHU216HW,2013-10-17 23:56:00,
2013-10-17 20:01:00,63.9,57.3,29.69,North,0,0.0,0.0,79,0.00,,,0.00,WUHU216HW,2013-10-18 00:01:00,
2013-10-17 20:06:00,63.5,56.9,29.69,North,0,0.0,0.0,79,0.00,,,0.00,WUHU216HW,2013-10-18 00:06:00,
2013-10-17 20:11:00,63.5,57.3,29.69,North,0,0.0,0.0,80,0.00,,,0.00,WUHU216HW,2013-10-18 00:11:00,
2013-10-17 20:16:00,63.2,57.0,29.69,North,0,0.0,0.0,80,0.00,,,0.00,WUHU216HW,2013-10-18 00:16:00,
2013-10-17 20:21:00,63.2,57.0,29.68,North,0,0.0,0.0,80,0.00,,,0.00,WUHU216HW,2013-10-18 00:21:00,
2013-10-17 20:26:00,63.2,57.0,29.68,North,0,0.0,0.0,80,0.00,,,0.00,WUHU216HW,2013-10-18 00:26:00,
2013-10-17 20:31:00,63.0,56.8,29.68,North,0,0.0,0.0,80,0.00,,,0.00,WUHU216HW,2013-10-18 00:31:00,
2013-10-17 20:36:00,63.0,57.1,29.68,North,0,0.0,0.0,81,0.00,,,0.00,WUHU216HW,2013-10-18 00:36:00,
2013-10-17 20:41:00,63.0,57.1,29.68,North,0,0.0,0.0,81,0.00,,,0.00,WUHU216HW,2013-10-18 00:41:00,
2013-10-17 20:46:00,62.8,56.9,29.68,North,0,0.0,0.0,81,0.00,,,0.00,WUHU216HW,2013-10-18 00:46:00,
2013-10-17 20:51:00,62.8,57.3,29.68,SE,135,1.1,1.1,82,0.00,,,0.00,WUHU216HW,2013-10-18 00:51:00,
2013-10-17 20:56:00,62.8,57.3,29.68,North,0,0.0,1.1,82,0.00,,,0.00,WUHU216HW,2013-10-18 00:56:00,
2013-10-17 21:01:00,62.8,57.3,29.68,SSE,158,1.1,1.1,82,0.00,,,0.00,WUHU216HW,2013-10-18 01:01:00,
2013-10-17 21:06:00,62.8,57.3,29.68,North,0,0.7,1.1,82,0.00,,,0.00,WUHU216HW,2013-10-18 01:06:00,
2013-10-17 21:11:00,62.8,57.3,29.68,SSE,158,0.7,2.0,82,0.00,,,0.00,WUHU216HW,2013-10-18 01:11:00,
2013-10-17 21:16:00,62.8,57.6,29.68,WSW,248,0.4,2.7,83,0.00,,,0.00,WUHU216HW,2013-10-18 01:16:00,
2013-10-17 21:21:00,62.6,57.4,29.68,South,180,0.0,2.7,83,0.00,,,0.00,WUHU216HW,2013-10-18 01:21:00,
2013-10-17 21:26:00,62.6,57.4,29.68,SSE,158,0.4,0.7,83,0.00,,,0.00,WUHU216HW,2013-10-18 01:26:00,
2013-10-17 21:31:00,62.6,57.4,29.68,ESE,113,1.1,1.1,83,0.00,,,0.00,WUHU216HW,2013-10-18 01:31:00,
2013-10-17 21:36:00,62.4,57.5,29.68,South,180,0.7,1.8,84,0.00,,,0.00,WUHU216HW,2013-10-18 01:36:00,
2013-10-17 21:41:00,62.4,57.8,29.68,ENE,68,1.8,2.5,85,0.00,,,0.00,WUHU216HW,2013-10-18 01:41:00,
2013-10-17 21:46:00,62.4,57.8,29.68,East,90,0.4,2.5,85,0.00,,,0.00,WUHU216HW,2013-10-18 01:46:00,
2013-10-17 21:51:00,62.4,57.8,29.68,WNW,293,1.1,1.8,85,0.00,,,0.00,WUHU216HW,2013-10-18 01:51:00,
2013-10-17 21:56:00,62.4,57.8,29.67,ENE,68,0.2,2.0,85,0.00,,,0.00,WUHU216HW,2013-10-18 01:56:00,
2013-10-17 22:01:00,62.4,58.2,29.67,SSW,203,3.8,3.8,86,0.00,,,0.00,WUHU216HW,2013-10-18 02:01:00,
2013-10-17 22:06:00,62.3,57.7,29.66,South,180,0.4,3.8,85,0.00,,,0.00,WUHU216HW,2013-10-18 02:06:00,
2013-10-17 22:11:00,62.3,57.7,29.66,SSE,158,0.4,3.8,85,0.00,,,0.00,WUHU216HW,2013-10-18 02:11:00,
2013-10-17 22:16:00,62.3,58.1,29.66,NW,315,0.4,1.1,86,0.00,,,0.00,WUHU216HW,2013-10-18 02:16:00,
2013-10-17 22:21:00,62.3,57.7,29.66,SSE,158,1.1,1.1,85,0.00,,,0.00,WUHU216HW,2013-10-18 02:21:00,
2013-10-17 22:26:00,62.3,57.7,29.66,SSE,158,0.2,1.1,85,0.00,,,0.00,WUHU216HW,2013-10-18 02:26:00,
2013-10-17 22:31:00,62.3,58.1,29.66,SSE,158,1.1,1.1,86,0.00,,,0.00,WUHU216HW,2013-10-18 02:31:00,
2013-10-17 22:36:00,62.3,57.7,29.66,SW,225,0.4,1.1,85,0.00,,,0.00,WUHU216HW,2013-10-18 02:36:00,
2013-10-17 22:41:00,62.3,58.1,29.65,SSW,203,2.5,2.5,86,0.00,,,0.00,WUHU216HW,2013-10-18 02:41:00,
2013-10-17 22:46:00,62.3,58.1,29.65,NE,45,0.7,2.5,86,0.00,,,0.00,WUHU216HW,2013-10-18 02:46:00,
2013-10-17 22:51:00,62.1,57.9,29.65,North,0,2.2,2.5,86,0.00,,,0.00,WUHU216HW,2013-10-18 02:51:00,
2013-10-17 22:56:00,62.1,57.9,29.64,North,0,0.9,2.2,86,0.00,,,0.00,WUHU216HW,2013-10-18 02:56:00,
2013-10-17 23:01:00,62.1,57.9,29.64,ENE,68,0.4,2.2,86,0.00,,,0.00,WUHU216HW,2013-10-18 03:01:00,
2013-10-17 23:06:00,62.1,58.2,29.65,SSE,158,2.0,2.0,87,0.00,,,0.00,WUHU216HW,2013-10-18 03:06:00,
2013-10-17 23:11:00,62.1,57.9,29.64,NNW,338,1.1,2.5,86,0.00,,,0.00,WUHU216HW,2013-10-18 03:11:00,
2013-10-17 23:16:00,62.1,57.9,29.64,WSW,248,0.9,2.5,86,0.00,,,0.00,WUHU216HW,2013-10-18 03:16:00,
2013-10-17 23:21:00,62.1,57.9,29.64,NW,315,0.4,1.1,86,0.00,,,0.00,WUHU216HW,2013-10-18 03:21:00,
2013-10-17 23:26:00,62.1,57.9,29.63,North,0,1.1,1.3,86,0.00,,,0.00,WUHU216HW,2013-10-18 03:26:00,
2013-10-17 23:31:00,62.1,57.9,29.63,SSW,203,0.9,1.3,86,0.00,,,0.00,WUHU216HW,2013-10-18 03:31:00,
2013-10-17 23:36:00,62.1,58.2,29.63,SSE,158,1.3,1.8,87,0.00,,,0.00,WUHU216HW,2013-10-18 03:36:00,
2013-10-17 23:41:00,62.1,58.2,29.63,South,180,2.7,2.7,87,0.00,,,0.00,WUHU216HW,2013-10-18 03:41:00,
2013-10-17 23:46:00,62.1,58.2,29.63,SE,135,2.2,2.7,87,0.00,,,0.00,WUHU216HW,2013-10-18 03:46:00,
2013-10-17 23:51:00,62.1,58.2,29.64,WSW,248,1.1,2.7,87,0.00,,,0.00,WUHU216HW,2013-10-18 03:51:00,
2013-10-17 23:56:00,61.9,58.0,29.64,SSW,203,0.4,2.2,87,0.00,,,0.00,WUHU216HW,2013-10-18 03:56:00,